Weather History for KCNB - August, 2013

Change the Weather History Date:

Friday, August 16, 2013

  Actual Average (KMML) Record (KMML)
Temperature  
Mean Temperature 62 °F -  
Max Temperature 74 °F 81 °F 104 °F (1988)
Min Temperature 52 °F 60 °F 50 °F (1976)
Degree Days  
Heating Degree Days 2    
Growing Degree Days 12 (Base 50)    
Moisture  
Dew Point 56 °F    
Average Humidity 78    
Maximum Humidity 97    
Minimum Humidity 59    
Precipitation  
Precipitation 0.00 in - - ()
Sea Level Pressure  
Sea Level Pressure 30.16 in    
Wind  
Wind Speed 3 mph (SSE)    
Max Wind Speed 12 mph    
Max Gust Speed 18 mph    
Visibility 10 miles    
Events      
Averages and records for this station are not official NWS values.
T = Trace of Precipitation, MM = Missing Value Source: NWS Daily Summary

Daily Weather History Graph

Daily Weather History Graph

Search for Another Location

Airport or City:

Trip Planner

Search our weather history database for the weather conditions in past years. The results will help you decide how hot, cold, wet, or windy it might be!

Date:

Astronomy

Aug. 16, 2013 Rise Set
Actual Time 6:28 AM CDT 8:28 PM CDT
Civil Twilight 5:57 AM CDT 9:00 PM CDT
Nautical Twilight 5:18 AM CDT 9:39 PM CDT
Astronomical Twilight 4:35 AM CDT 10:21 PM CDT
Moon 4:53 PM CDT (8/16) 1:27 AM CDT (8/16)
Length of Visible Light 15h 03m
Length of Day
13h 59m
Waxing Gibbous, 75% of the Moon is Illuminated
Aug 16
Waxing Gibbous
Aug 20
Full
Aug 28
Last Quarter
Sep 5
New
Sep 12
First Quarter

Hourly Weather History & Observations

Time (CDT) Temp. Dew Point Humidity Pressure Visibility Wind Dir Wind Speed Gust Speed Precip Events Conditions
12:14 AM 60.3 °F 56.3 °F 87% 30.15 in 10.0 mi Calm Calm - N/A   Clear
12:54 AM 58.8 °F 55.2 °F 88% 30.15 in 10.0 mi Calm Calm - N/A   Clear
1:14 AM 57.2 °F 54.1 °F 89% 30.16 in 10.0 mi Calm Calm - N/A   Clear
1:34 AM 58.1 °F 55.2 °F 90% 30.15 in 10.0 mi Calm Calm - N/A   Clear
1:54 AM 57.7 °F 54.9 °F 90% 30.15 in 10.0 mi Calm Calm - N/A   Clear
2:14 AM 57.2 °F 54.5 °F 91% 30.15 in 10.0 mi Calm Calm - N/A   Clear
2:34 AM 55.2 °F 53.2 °F 93% 30.15 in 10.0 mi Calm Calm - N/A   Clear
2:54 AM 54.1 °F 53.1 °F 96% 30.15 in 7.0 mi Calm Calm - N/A   Clear
3:14 AM 54.5 °F 53.4 °F 96% 30.15 in 7.0 mi Calm Calm - N/A   Clear
3:34 AM 54.3 °F 53.4 °F 97% 30.15 in 5.0 mi Calm Calm - N/A   Clear
3:54 AM 52.3 °F 51.3 °F 96% 30.15 in 10.0 mi Calm Calm - N/A   Clear
4:14 AM 53.1 °F 52.2 °F 97% 30.15 in 10.0 mi Calm Calm - N/A   Clear
4:34 AM 54.0 °F 52.9 °F 96% 30.15 in 10.0 mi Calm Calm - N/A   Clear
4:54 AM 52.7 °F 51.8 °F 97% 30.15 in 7.0 mi Calm Calm - N/A   Clear
5:14 AM 52.2 °F 51.3 °F 97% 30.16 in 10.0 mi Calm Calm - N/A   Clear
5:34 AM 53.6 °F 52.5 °F 96% 30.16 in 10.0 mi Calm Calm - N/A   Clear
5:54 AM 54.3 °F 53.6 °F 97% 30.16 in 7.0 mi Calm Calm - N/A   Clear
6:14 AM 55.2 °F 53.2 °F 93% 30.16 in 10.0 mi Calm Calm - N/A   Clear
6:34 AM 53.4 °F 52.5 °F 97% 30.17 in 7.0 mi Calm Calm - N/A   Clear
6:54 AM 52.7 °F 51.6 °F 96% 30.17 in 7.0 mi Calm Calm - N/A   Clear
7:14 AM 53.6 °F 52.5 °F 96% 30.18 in 10.0 mi Calm Calm - N/A   Clear
7:34 AM 54.7 °F 53.6 °F 96% 30.18 in 7.0 mi Calm Calm - N/A   Clear
7:54 AM 57.0 °F 55.8 °F 96% 30.18 in 7.0 mi Calm Calm - N/A   Clear
8:14 AM 59.0 °F 57.0 °F 93% 30.18 in 10.0 mi Calm Calm - N/A   Clear
8:35 AM 62.2 °F 58.1 °F 86% 30.18 in 10.0 mi SSW 3.5 mph - N/A   Clear
8:54 AM 64.4 °F 57.2 °F 77% 30.18 in 10.0 mi Calm Calm - N/A   Clear
9:14 AM 65.3 °F 57.4 °F 76% 30.19 in 10.0 mi SSE 6.9 mph - N/A   Clear
9:35 AM 66.6 °F 56.3 °F 69% 30.19 in 10.0 mi SSW 5.8 mph - N/A   Clear
9:54 AM 66.7 °F 56.1 °F 69% 30.19 in 10.0 mi South 8.1 mph - N/A   Clear
10:14 AM 68.2 °F 56.1 °F 65% 30.19 in 10.0 mi SSE 8.1 mph - N/A   Clear
10:34 AM 68.9 °F 55.8 °F 63% 30.20 in 10.0 mi South 8.1 mph - N/A   Clear
10:54 AM 68.5 °F 55.9 °F 64% 30.19 in 10.0 mi South 10.4 mph - N/A   Clear
11:14 AM 70.3 °F 57.0 °F 63% 30.19 in 10.0 mi SSE 9.2 mph 16.1 mph N/A   Scattered Clouds
11:34 AM 69.1 °F 56.5 °F 64% 30.19 in 10.0 mi South 9.2 mph - N/A   Mostly Cloudy
11:54 AM 70.7 °F 56.5 °F 61% 30.19 in 10.0 mi South 8.1 mph - N/A   Scattered Clouds
12:14 PM 70.5 °F 56.7 °F 61% 30.18 in 10.0 mi SSE 6.9 mph - N/A   Mostly Cloudy
12:34 PM 70.7 °F 56.7 °F 61% 30.18 in 10.0 mi South 9.2 mph - N/A   Overcast
12:54 PM 70.7 °F 57.9 °F 64% 30.18 in 10.0 mi SE 8.1 mph - N/A   Overcast
1:14 PM 71.4 °F 58.1 °F 63% 30.18 in 10.0 mi SE 9.2 mph - N/A   Overcast
1:34 PM 71.8 °F 57.2 °F 60% 30.18 in 10.0 mi SSE 8.1 mph - N/A   Overcast
1:54 PM 71.2 °F 58.3 °F 64% 30.17 in 10.0 mi SE 6.9 mph - N/A   Overcast
2:14 PM 71.4 °F 58.5 °F 64% 30.17 in 10.0 mi SSE 6.9 mph - N/A   Overcast
2:34 PM 72.3 °F 58.1 °F 61% 30.17 in 10.0 mi South 8.1 mph - N/A   Overcast
2:54 PM 72.5 °F 58.5 °F 61% 30.16 in 10.0 mi SSW 4.6 mph - N/A   Overcast
3:14 PM 72.7 °F 58.8 °F 62% 30.16 in 10.0 mi South 9.2 mph - N/A   Overcast
3:34 PM 73.8 °F 58.5 °F 59% 30.15 in 10.0 mi SSE 11.5 mph - N/A   Mostly Cloudy
3:54 PM 72.5 °F 59.7 °F 64% 30.15 in 10.0 mi SSE 8.1 mph - N/A   Mostly Cloudy
4:14 PM 72.0 °F 59.0 °F 64% 30.15 in 10.0 mi SSE 10.4 mph - N/A   Overcast
4:34 PM 72.7 °F 58.6 °F 61% 30.15 in 10.0 mi SSE 8.1 mph - N/A   Overcast
4:54 PM 72.5 °F 58.5 °F 61% 30.15 in 10.0 mi South 8.1 mph - N/A   Overcast
5:14 PM 72.3 °F 58.8 °F 62% 30.15 in 10.0 mi South 9.2 mph - N/A   Overcast
5:35 PM 73.2 °F 59.2 °F 61% 30.15 in 10.0 mi SSE 10.4 mph 18.4 mph N/A   Overcast
5:54 PM 72.0 °F 59.7 °F 65% 30.15 in 10.0 mi SSE 8.1 mph - N/A   Overcast
6:14 PM 72.0 °F 58.3 °F 62% 30.15 in 10.0 mi SSE 10.4 mph - N/A   Mostly Cloudy
6:34 PM 71.6 °F 58.8 °F 64% 30.15 in 10.0 mi SSE 9.2 mph - N/A   Mostly Cloudy
6:54 PM 70.9 °F 59.5 °F 67% 30.15 in 10.0 mi South 5.8 mph - N/A   Overcast
7:14 PM 70.2 °F 59.2 °F 68% 30.15 in 10.0 mi South 8.1 mph - N/A   Overcast
7:35 PM 69.8 °F 59.2 °F 69% 30.15 in 10.0 mi SSE 8.1 mph - N/A   Overcast
7:54 PM 69.4 °F 58.8 °F 69% 30.15 in 10.0 mi SSE 5.8 mph - N/A   Overcast
8:14 PM 68.9 °F 58.6 °F 70% 30.15 in 10.0 mi SSE 6.9 mph - N/A   Overcast
8:35 PM 67.3 °F 58.6 °F 74% 30.15 in 10.0 mi SSE 5.8 mph - N/A   Overcast
8:54 PM 65.1 °F 58.5 °F 79% 30.15 in 10.0 mi SSE 4.6 mph - N/A   Scattered Clouds
9:14 PM 64.8 °F 58.1 °F 79% 30.16 in 10.0 mi South 4.6 mph - N/A   Scattered Clouds
9:34 PM 64.2 °F 58.1 °F 80% 30.16 in 10.0 mi South 4.6 mph - N/A   Clear
9:54 PM 64.4 °F 58.1 °F 80% 30.16 in 10.0 mi South 6.9 mph - N/A   Clear
10:14 PM 63.9 °F 58.1 °F 81% 30.16 in 10.0 mi South 5.8 mph - N/A   Clear
10:34 PM 63.3 °F 57.7 °F 82% 30.16 in 10.0 mi South 5.8 mph - N/A   Clear
10:54 PM 62.2 °F 57.4 °F 84% 30.16 in 10.0 mi South 4.6 mph - N/A   Clear
11:14 PM 61.3 °F 57.4 °F 87% 30.17 in 10.0 mi South 4.6 mph - N/A   Clear
11:34 PM 60.4 °F 56.8 °F 88% 30.17 in 10.0 mi South 3.5 mph - N/A   Clear
11:54 PM 58.5 °F 55.9 °F 91% 30.17 in 10.0 mi South 4.6 mph - N/A   Clear